Wind_Speed
7 5 7 7 9 11 13 24 26 24 24 25 16 15 15 15 13 14 25 21 18 17 17 15 14 13 13 12 12 12 13 14 15 16 16 17 17 17 17 17 18 18 17 18 18 18 18 19 19
7 6 14 10 10 12 16 20 20 17 18 14 15 13 13 10 7 17 23 18 15 14 14 12 11 10 10 9 9 10 11 12 13 15 15 16 16 17 17 16 16 17 17 18 17 18 18 19 19
9 13 19 12 4 16 20 17 17 11 12 4 10 5 13 19 19 19 19 21 18 13 11 9 9 8 8 9 11 11 11 12 13 14 15 17 18 18 17 17 17 18 18 18 18 19 18 17 18
10 11 15 8 9 10 21 17 18 14 12 8 4 21 19 10 14 14 17 15 16 11 10 8 6 6 8 11 11 11 11 11 12 15 15 14 16 16 16 16 17 17 18 19 19 20 19 18 17
3 4 23 10 7 23 16 20 23 18 17 6 10 28 24 16 17 16 11 9 9 10 8 8 8 8 10 10 11 11 12 12 11 10 11 13 15 15 15 16 16 17 18 20 21 20 19 18 17
10 8 22 15 17 24 20 21 22 17 10 12 13 22 21 17 18 16 11 10 12 10 9 9 9 9 10 11 12 12 12 12 12 13 15 14 14 13 13 16 17 16 18 20 20 20 19 18 15
7 8 16 24 26 16 12 13 9 10 14 14 17 23 23 16 15 15 7 21 18 11 11 11 9 9 10 11 11 11 13 13 16 15 15 14 14 13 14 15 16 16 17 19 19 20 19 17 16
6 6 18 21 26 16 21 20 27 15 19 14 16 24 26 14 14 14 6 11 9 8 8 10 9 9 11 9 10 12 14 14 11 10 11 16 14 14 15 16 16 16 17 17 18 18 18 17 16
8 3 9 26 25 21 18 16 11 17 14 9 9 19 20 17 17 13 10 6 1 6 10 8 10 10 11 10 10 12 12 12 10 16 22 20 16 15 15 16 16 16 16 17 19 18 18 18 17
7 7 8 7 25 23 20 24 19 22 21 19 27 14 15 13 10 7 7 3 2 11 6 12 10 10 11 11 10 9 9 12 14 19 22 20 17 15 13 15 14 15 14 16 16 17 17 20 21
8 9 10 2 33 27 16 16 17 12 20 29 25 22 19 20 8 9 7 5 6 2 8 15 10 12 13 12 10 18 12 10 15 21 23 19 19 15 13 13 15 14 14 13 12 16 20 20 22
11 11 8 9 12 31 16 18 25 12 15 21 13 31 23 15 12 4 3 3 5 5 5 12 8 11 15 13 17 18 18 10 20 22 18 19 18 17 14 14 14 15 18 16 16 15 20 16 21
11 11 8 10 12 24 24 22 20 16 21 19 17 26 21 20 21 9 6 5 4 2 7 11 10 12 11 13 16 14 13 21 19 18 18 15 16 15 14 14 13 15 17 22 21 20 17 18 12
17 11 12 7 13 15 21 14 19 20 21 21 21 24 16 21 20 14 9 7 5 3 11 9 9 10 15 15 14 11 16 18 21 16 15 13 15 14 13 16 16 16 18 20 23 25 24 13 16
12 11 6 10 17 19 18 13 19 26 25 16 24 18 18 18 22 14 12 8 3 8 11 8 7 12 16 19 16 10 13 18 18 13 13 13 14 18 12 10 16 25 27 23 23 20 20 18 17
13 12 10 18 21 20 21 18 17 19 22 18 18 22 21 21 22 17 13 15 8 7 6 8 9 12 17 16 15 14 14 10 15 15 12 12 13 10 13 13 23 20 15 22 17 15 19 19 14
14 8 8 12 15 15 16 24 27 24 22 19 18 21 24 22 20 14 13 14 6 5 6 14 14 13 14 18 16 15 13 10 14 14 11 10 10 11 11 21 15 14 16 22 27 15 11 15 12
14 13 6 14 9 15 24 25 30 30 28 17 20 25 23 24 17 14 15 16 7 8 9 12 15 15 14 13 13 12 12 13 14 12 12 10 9 12 11 11 14 19 11 23 20 16 13 12 6
19 5 8 6 5 5 4 20 30 33 33 29 30 29 26 25 18 16 17 14 7 11 12 14 15 16 14 12 15 13 12 11 11 10 12 10 8 9 9 9 11 13 12 24 18 22 9 15 10
6 6 9 7 10 6 10 23 13 31 35 34 34 32 28 25 19 19 19 13 12 13 17 14 18 15 15 14 14 14 13 12 12 10 11 8 7 7 8 12 11 13 16 19 19 20 21 17 16
14 4 8 7 15 8 3 9 33 27 39 29 35 33 31 28 26 21 24 19 13 12 14 14 17 18 15 14 13 11 12 10 11 10 9 10 7 5 5 12 12 12 13 17 20 20 20 19 17
5 11 10 10 17 2 5 3 4 30 46 36 34 31 32 28 28 23 24 22 10 9 12 15 17 17 16 13 11 11 12 10 10 9 10 9 7 6 4 6 8 9 9 15 23 19 22 19 13
10 9 7 11 14 2 14 4 10 28 46 43 36 33 37 30 26 21 27 19 11 8 6 11 15 16 16 15 12 11 10 10 9 9 10 9 6 8 8 9 7 8 10 13 19 18 18 16 12
16 13 10 8 10 3 15 16 16 24 42 48 40 39 39 30 30 23 27 19 11 14 10 12 15 16 15 14 16 13 11 10 7 8 9 8 8 8 8 9 9 7 6 12 18 15 14 16 15
6 12 1 2 2 2 10 15 12 18 22 49 49 47 36 41 32 29 28 23 19 16 17 10 15 15 14 14 13 12 12 9 9 7 6 5 7 10 10 7 8 10 9 8 9 15 16 16 18
6 12 15 3 1 3 8 4 5 16 14 39 32 48 38 31 37 37 35 29 22 24 17 15 8 16 18 16 15 15 14 12 12 10 8 8 7 9 13 12 9 8 8 9 11 12 15 16 20
9 21 17 7 6 3 3 10 10 6 5 32 36 37 43 35 34 35 36 27 23 20 19 17 8 10 16 17 16 15 13 13 10 10 10 9 10 5 6 7 10 10 8 8 12 12 14 14 15
11 10 6 5 5 3 9 9 14 9 11 18 37 39 42 45 40 34 29 29 22 24 25 22 15 6 16 17 17 17 16 14 14 12 9 5 7 5 6 6 8 9 10 8 8 9 10 11 12
14 13 10 8 7 6 4 8 5 15 11 20 25 40 39 41 38 40 36 35 21 23 26 21 24 9 13 19 17 17 16 15 13 13 10 7 7 7 5 7 7 7 6 7 7 8 10 9 10
13 13 13 15 14 8 2 3 8 16 15 20 20 20 33 43 38 32 31 20 24 26 27 22 21 17 13 16 18 18 17 16 16 16 15 12 11 11 11 9 8 7 7 7 6 6 5 4 6
Wind_Direction
124 138 72 137 75 84 100 111 108 102 98 138 129 151 135 129 144 144 134 127 130 129 124 117 112 105 101 101 104 104 102 100 95 94 94 95 99 100 101 100 98 96 96 96 98 97 96 98 95
134 170 125 86 108 137 112 117 95 94 117 126 128 150 145 116 190 136 133 131 139 132 122 118 113 105 100 101 104 112 116 112 105 102 100 100 101 105 107 106 103 104 99 97 98 96 95 99 98
168 119 123 155 165 114 117 130 124 118 123 146 160 138 150 137 132 143 137 153 142 142 132 126 117 107 106 106 109 113 118 123 115 106 102 103 103 104 107 105 106 104 101 100 99 97 97 98 100
136 142 156 169 130 110 137 131 129 134 104 118 159 96 109 129 135 138 128 124 143 140 131 127 116 110 114 117 112 116 117 120 120 114 100 104 109 102 104 104 103 102 100 102 100 96 96 94 98
133 30 124 149 89 117 144 144 134 134 110 99 136 134 132 143 127 125 145 134 137 133 140 137 129 123 119 116 115 119 120 129 134 134 119 110 112 102 102 104 103 101 102 98 98 96 95 96 93
33 6 143 170 99 124 148 164 141 142 151 137 151 140 128 137 128 133 148 145 136 142 142 136 131 125 118 116 117 122 126 131 132 123 120 115 113 113 96 103 104 102 101 100 99 97 93 91 94
352 10 134 138 129 116 152 200 131 155 146 149 150 130 124 124 128 136 132 120 105 121 136 137 133 121 119 120 118 118 124 131 123 121 128 113 109 112 104 105 106 101 99 98 98 96 94 88 83
317 327 156 151 142 119 129 126 128 111 142 109 131 134 141 141 146 144 140 96 113 147 160 146 132 130 131 126 125 127 128 135 147 149 124 119 112 105 104 102 104 103 99 99 98 96 93 92 89
322 339 176 151 160 137 134 132 157 150 149 121 118 136 139 151 152 158 127 128 77 117 149 146 137 137 128 121 127 137 141 139 142 147 141 128 116 107 105 108 114 114 115 113 109 104 99 91 82
339 320 341 159 184 154 141 131 137 158 149 135 128 131 147 152 132 128 119 75 214 142 137 132 128 130 114 108 115 125 115 145 141 129 132 127 118 113 118 115 112 105 108 111 109 105 99 98 101
298 320 330 236 177 175 181 188 163 190 156 140 149 148 168 133 168 142 116 99 70 135 130 125 115 109 110 115 103 94 117 163 156 151 135 131 126 123 115 109 98 98 96 107 120 96 97 101 101
249 289 302 290 195 196 183 142 174 155 153 163 162 149 168 171 142 142 260 159 356 247 133 117 120 112 88 131 99 111 86 105 147 140 140 132 127 126 124 125 110 102 105 95 112 117 115 108 104
232 275 240 298 200 201 183 203 159 151 165 167 153 163 179 147 142 176 219 240 290 199 120 132 146 125 106 128 99 108 89 117 127 112 134 137 127 125 126 113 127 100 100 95 99 95 105 101 107
265 247 270 267 172 160 188 164 154 157 181 153 157 174 154 138 169 181 209 224 258 140 141 131 133 109 135 126 107 109 103 112 116 129 139 131 127 127 129 126 104 108 115 105 108 82 74 106 121
265 229 228 175 162 144 158 150 176 164 160 178 166 169 150 146 178 201 234 255 212 128 126 131 125 126 128 127 126 126 110 109 115 116 121 119 124 137 125 138 111 108 106 96 88 79 77 86 110
219 182 161 176 171 156 154 152 140 143 172 167 163 153 159 177 184 206 219 228 210 127 148 137 136 139 148 139 127 128 141 115 121 114 108 115 126 148 149 108 123 129 133 129 121 115 93 95 108
248 264 159 175 198 189 174 154 152 160 174 171 171 159 170 188 201 222 218 221 220 174 209 150 139 141 144 131 147 129 120 125 139 133 135 135 135 131 127 142 132 145 149 138 123 110 113 100 99
259 218 171 169 199 236 204 177 162 166 170 180 177 178 183 196 202 206 225 220 200 218 209 142 144 152 130 143 126 117 124 123 122 128 135 144 132 120 148 142 137 138 139 134 132 125 129 138 125
241 224 158 164 171 228 254 197 177 174 173 178 188 185 189 203 202 198 215 222 217 231 194 150 153 147 137 131 147 145 128 144 139 121 121 146 136 125 135 138 132 148 164 139 146 151 173 155 147
219 222 163 184 183 217 237 223 195 191 178 184 187 193 198 208 184 213 218 229 230 246 198 171 156 157 156 160 161 158 152 140 130 131 127 138 146 142 124 118 141 155 153 167 156 166 166 159 158
268 284 196 196 166 192 194 239 230 206 190 188 186 184 205 197 209 206 213 230 231 240 205 172 162 170 172 155 159 162 152 153 144 158 138 144 163 147 140 135 147 153 156 157 165 174 185 169 164
219 252 192 174 148 127 197 274 260 214 195 193 186 182 202 217 196 218 217 227 229 225 204 176 176 180 175 175 167 164 156 161 162 159 157 159 170 189 171 120 134 150 157 160 163 175 184 180 178
178 111 190 141 140 188 200 195 236 195 199 194 186 171 195 206 204 197 214 227 228 211 199 216 184 184 181 175 163 177 186 179 169 151 169 162 168 175 180 149 163 138 163 161 175 182 174 186 173
130 127 168 133 126 146 223 204 215 193 205 200 196 194 199 196 202 186 202 223 226 239 215 207 201 189 186 195 187 184 183 182 171 175 159 172 171 174 186 169 165 180 170 166 184 188 180 181 206
169 149 254 208 169 349 319 212 245 286 228 204 202 201 205 197 189 190 201 220 227 236 230 189 207 206 201 199 198 176 182 197 173 181 171 193 186 184 177 195 185 185 195 172 183 194 201 178 198
186 213 169 265 171 114 333 241 252 311 256 201 198 198 212 180 192 204 200 213 223 233 260 232 186 210 207 210 202 194 202 200 188 189 182 188 202 191 187 183 204 212 209 209 192 193 208 210 203
209 230 254 144 110 76 321 333 258 313 190 208 195 201 202 201 207 208 209 222 213 229 250 217 170 221 217 215 215 199 209 217 215 217 202 213 215 161 186 196 204 207 218 219 220 214 212 210 218
240 251 222 148 142 201 140 122 335 235 206 207 207 204 205 209 200 212 208 216 212 228 245 239 220 234 232 223 220 215 213 216 213 221 231 230 204 207 205 200 217 212 213 220 229 231 230 224 217
240 254 263 277 198 144 162 175 350 182 225 225 215 223 215 209 213 207 219 228 209 232 240 243 231 229 240 226 223 218 214 219 222 218 238 243 223 227 192 204 213 184 208 217 233 232 233 232 228
230 244 251 274 282 286 179 198 250 202 194 226 218 219 218 219 218 215 231 210 200 219 231 215 222 236 245 229 216 213 213 216 218 230 238 232 222 213 218 234 230 200 203 214 221 226 225 230 238
Height
3164 3163 3164 3163 3168 3169 3164 3167 3169 3168 3170 3172 3172 3174 3175 3176 3177 3181 3183 3186 3189 3190 3192 3193 3194 3195 3195 3195 3196 3197 3198 3199 3200 3200 3201 3201 3201 3201 3201 3202 3203 3203 3204 3205 3205 3206 3208 3208 3210
3165 3165 3163 3164 3168 3170 3170 3170 3169 3171 3173 3173 3175 3175 3176 3176 3178 3179 3182 3188 3190 3192 3193 3194 3195 3196 3196 3197 3198 3199 3200 3201 3202 3203 3203 3204 3204 3205 3205 3206 3206 3207 3207 3207 3208 3208 3210 3210 3212
3165 3167 3165 3164 3166 3169 3172 3172 3173 3174 3173 3172 3173 3176 3176 3177 3181 3181 3187 3188 3192 3193 3195 3196 3197 3198 3198 3199 3200 3200 3201 3203 3204 3205 3206 3207 3207 3208 3208 3208 3209 3210 3210 3210 3211 3211 3212 3214 3214
3165 3168 3158 3163 3166 3170 3172 3174 3175 3174 3175 3176 3174 3177 3179 3182 3183 3185 3187 3192 3193 3194 3195 3196 3198 3198 3199 3199 3201 3202 3203 3205 3206 3207 3209 3209 3210 3211 3211 3212 3212 3213 3212 3213 3213 3213 3215 3216 3217
3167 3153 3168 3165 3169 3170 3173 3174 3171 3173 3175 3176 3176 3179 3180 3185 3187 3189 3190 3193 3194 3194 3196 3197 3198 3199 3200 3201 3202 3204 3205 3206 3207 3209 3210 3211 3212 3213 3214 3214 3215 3216 3216 3215 3215 3215 3217 3219 3218
3168 3169 3163 3168 3170 3172 3173 3170 3174 3176 3176 3179 3178 3178 3183 3187 3190 3191 3193 3195 3196 3197 3198 3198 3199 3200 3201 3202 3203 3204 3206 3207 3208 3210 3212 3213 3214 3215 3216 3216 3216 3217 3218 3218 3219 3219 3220 3221 3221
3167 3168 3166 3168 3169 3172 3174 3173 3176 3175 3177 3179 3180 3179 3187 3189 3189 3192 3192 3196 3197 3199 3200 3200 3201 3201 3202 3203 3204 3206 3207 3209 3210 3212 3213 3215 3216 3218 3218 3219 3219 3220 3220 3220 3221 3221 3222 3222 3222
3168 3169 3168 3167 3167 3171 3173 3176 3175 3176 3179 3180 3184 3182 3187 3190 3192 3193 3192 3195 3197 3199 3200 3201 3203 3203 3203 3204 3205 3206 3208 3210 3211 3214 3216 3217 3218 3219 3221 3222 3222 3222 3221 3222 3222 3222 3223 3224 3225
3170 3170 3167 3163 3168 3172 3173 3176 3179 3183 3180 3183 3185 3185 3190 3191 3192 3193 3194 3197 3199 3199 3200 3202 3203 3203 3204 3206 3206 3207 3209 3210 3210 3210 3214 3217 3220 3222 3223 3223 3223 3223 3223 3224 3225 3225 3226 3227 3228
3169 3170 3169 3166 3170 3173 3173 3178 3181 3182 3181 3183 3186 3190 3191 3192 3193 3195 3198 3198 3200 3202 3201 3202 3204 3204 3206 3207 3207 3208 3211 3210 3212 3215 3217 3219 3222 3224 3225 3225 3226 3227 3228 3228 3228 3226 3227 3228 3230
3168 3169 3168 3167 3172 3172 3174 3177 3182 3180 3183 3185 3186 3191 3191 3194 3196 3198 3199 3201 3200 3201 3201 3202 3204 3205 3208 3207 3207 3210 3210 3210 3213 3217 3219 3220 3221 3225 3227 3229 3230 3231 3231 3230 3230 3232 3231 3232 3232
3168 3167 3169 3168 3171 3172 3173 3177 3177 3183 3184 3187 3189 3193 3194 3197 3196 3196 3197 3201 3201 3200 3201 3203 3204 3205 3207 3208 3210 3212 3213 3208 3213 3219 3222 3223 3224 3225 3229 3229 3232 3231 3233 3232 3231 3232 3232 3234 3234
3167 3167 3166 3166 3168 3169 3167 3165 3181 3184 3186 3188 3190 3194 3197 3199 3200 3201 3201 3202 3202 3202 3202 3204 3206 3206 3208 3210 3212 3214 3215 3217 3218 3221 3223 3225 3227 3228 3230 3232 3234 3235 3237 3235 3234 3235 3235 3236 3238
3165 3165 3165 3164 3169 3170 3173 3173 3181 3185 3185 3187 3191 3195 3199 3199 3200 3201 3201 3202 3202 3204 3205 3205 3206 3208 3210 3212 3214 3216 3221 3221 3221 3224 3227 3228 3229 3229 3232 3233 3236 3235 3238 3238 3240 3240 3240 3242 3242
3163 3163 3164 3165 3169 3170 3176 3175 3184 3183 3187 3189 3193 3196 3199 3202 3201 3201 3201 3202 3203 3205 3206 3207 3208 3210 3211 3214 3217 3218 3220 3223 3225 3226 3227 3229 3232 3230 3233 3235 3237 3236 3238 3239 3241 3242 3243 3246 3246
3158 3165 3163 3167 3168 3171 3176 3177 3183 3186 3187 3189 3193 3196 3200 3202 3203 3204 3205 3203 3204 3206 3206 3208 3209 3211 3213 3216 3220 3222 3223 3223 3226 3228 3231 3232 3234 3234 3234 3236 3236 3236 3237 3239 3238 3242 3244 3245 3248
3159 3162 3161 3163 3166 3170 3175 3177 3181 3186 3186 3190 3194 3197 3200 3202 3203 3205 3205 3203 3205 3207 3208 3210 3211 3213 3215 3218 3220 3223 3224 3227 3228 3230 3231 3233 3234 3235 3236 3235 3236 3239 3241 3240 3241 3243 3246 3246 3249
3157 3161 3161 3163 3167 3167 3171 3174 3175 3180 3185 3191 3194 3197 3199 3201 3202 3204 3203 3205 3208 3209 3209 3210 3212 3214 3218 3219 3222 3222 3225 3228 3229 3231 3232 3233 3234 3235 3236 3236 3237 3241 3242 3243 3244 3246 3248 3248 3250
3161 3160 3159 3162 3165 3166 3168 3170 3174 3178 3182 3187 3191 3194 3196 3199 3202 3203 3203 3207 3209 3208 3210 3210 3214 3215 3218 3221 3224 3224 3227 3230 3231 3232 3233 3234 3235 3236 3236 3238 3239 3241 3242 3244 3246 3247 3249 3249 3252
3160 3161 3159 3163 3162 3167 3166 3167 3172 3176 3178 3182 3187 3192 3193 3197 3200 3200 3202 3206 3209 3209 3210 3211 3214 3216 3218 3221 3223 3224 3227 3230 3232 3234 3235 3235 3236 3235 3237 3240 3239 3242 3244 3244 3244 3248 3250 3251 3254
3158 3157 3158 3159 3158 3165 3167 3167 3166 3172 3176 3179 3183 3188 3192 3194 3198 3200 3202 3205 3208 3208 3210 3211 3214 3216 3218 3221 3224 3226 3227 3229 3232 3234 3235 3236 3237 3238 3239 3242 3243 3243 3244 3244 3245 3248 3250 3252 3254
3152 3155 3158 3157 3157 3165 3167 3167 3163 3165 3172 3175 3178 3181 3190 3193 3196 3198 3201 3203 3207 3209 3211 3212 3214 3215 3218 3221 3223 3227 3228 3230 3232 3234 3235 3236 3237 3238 3240 3242 3243 3244 3245 3245 3247 3248 3251 3254 3258
3149 3156 3160 3158 3155 3164 3166 3167 3162 3164 3167 3169 3174 3176 3183 3190 3194 3198 3198 3202 3206 3209 3212 3214 3215 3216 3218 3221 3222 3225 3228 3231 3231 3234 3235 3236 3237 3237 3239 3242 3242 3244 3247 3247 3249 3250 3252 3256 3259
3149 3154 3161 3159 3154 3159 3161 3163 3162 3158 3156 3167 3170 3175 3179 3186 3192 3197 3200 3202 3205 3208 3212 3213 3216 3217 3218 3220 3223 3226 3229 3230 3232 3234 3234 3235 3236 3237 3238 3241 3243 3244 3246 3248 3249 3251 3255 3258 3259
3150 3154 3159 3159 3155 3159 3160 3163 3158 3156 3157 3161 3166 3170 3177 3182 3188 3194 3197 3199 3203 3205 3211 3213 3215 3218 3220 3220 3223 3226 3227 3229 3232 3233 3234 3235 3235 3236 3238 3239 3241 3243 3246 3248 3250 3251 3254 3258 3259
3147 3149 3152 3155 3155 3157 3158 3157 3157 3154 3149 3157 3164 3171 3176 3181 3186 3192 3197 3199 3201 3203 3208 3212 3214 3217 3219 3221 3222 3225 3227 3229 3230 3232 3234 3233 3235 3236 3237 3239 3240 3243 3244 3247 3249 3251 3253 3255 3257
3146 3149 3148 3147 3152 3154 3157 3160 3155 3152 3150 3156 3160 3168 3173 3179 3183 3189 3194 3198 3200 3202 3204 3210 3212 3216 3218 3220 3222 3224 3226 3228 3229 3231 3232 3232 3235 3236 3238 3240 3241 3242 3245 3247 3248 3249 3251 3253 3254
3143 3146 3147 3145 3153 3156 3156 3158 3159 3155 3156 3157 3160 3163 3171 3178 3182 3186 3188 3193 3198 3203 3205 3207 3210 3214 3217 3219 3221 3223 3224 3226 3229 3228 3230 3232 3235 3234 3235 3238 3241 3241 3243 3244 3245 3246 3248 3251 3252
3141 3142 3144 3145 3144 3146 3150 3153 3153 3152 3154 3156 3158 3161 3167 3170 3178 3182 3186 3191 3196 3202 3201 3203 3207 3211 3214 3217 3219 3221 3222 3224 3226 3228 3228 3230 3233 3234 3234 3236 3237 3237 3240 3241 3242 3243 3245 3247 3248
3138 3140 3142 3142 3142 3142 3142 3147 3147 3146 3149 3150 3153 3156 3160 3166 3173 3179 3182 3187 3192 3196 3197 3199 3205 3209 3211 3214 3216 3219 3220 3221 3224 3226 3228 3230 3232 3233 3235 3236 3236 3235 3237 3238 3240 3241 3243 3245 3247